Regional Weather Roundup
Issued by NWS Nashville, TN

Home | Current Version | Previous Version | Text Only | Print | Product List | Glossary On
Versions: 1 2 3 4 5 6 7 8 9 10 11 12 13 14 15 16 17 18 19 20 21 22 23 24 25 26 27 28 29 30 31 32 33 34 35 36 37 38 39 40 41 42 43 44 45 46 47 48 49 50
000
ASUS44 KOHX 270215
RWROHX
MIDDLE TENNESSEE HOURLY WEATHER ROUNDUP
NATIONAL WEATHER SERVICE NASHVILLE TN
900 PM CDT TUE MAY 26 2015

NOTE: "FAIR" INDICATES FEW OR NO CLOUDS BELOW 12,000 FEET WITH
NO SIGNIFICANT WEATHER AND/OR OBSTRUCTIONS TO VISIBILITY.

* THESE REPORTS ARE NOT UNDER NWS QUALITY CONTROL AND MAY NOT
  REPORT WEATHER SUCH AS PRECIPITATION AND FOG.


TNZ005>011-023>034-057-059-062>066-078-080-270300
...NORTHERN MIDDLE TENNESSEE...

CITY           SKY/WX    TMP DP  RH WIND       PRES   REMARKS
CLARKSVILLE    CLEAR     72  65  78 SW5       30.06R
CROSSVILLE     CLOUDY    69  65  86 S7        30.17R
JOELTON*         N/A     72  68  88 CALM      30.00
LIVINGSTON     CLOUDY    70  65  84 SW6       30.12
NASHVILLE      MOCLDY    71  67  87 S3        30.09R
OLD HICKORY*     N/A     73  70  88 CALM      29.71
PORTLAND       MOCLDY    70  66  88 S6        30.07R
ROCKWOOD       CLOUDY    66  66 100 S15       30.18R
SMYRNA         MOCLDY    73  68  84 SW5       30.10R
SPARTA         CLEAR     70  66  88 S7        30.11R
$$
TNZ056-058-060-061-075>077-079-093>097-270300
...SOUTHERN MIDDLE TENNESSEE...

CITY           SKY/WX    TMP DP  RH WIND       PRES   REMARKS
COLUMBIA       CLEAR     72  68  88 S3        30.09R
LEWISBURG      MOCLDY    73  65  76 SW3       30.11R
MANCHESTER*      N/A     72  16  12 CALM      30.06
MCMINNVILLE    PTCLDY    73  70  88 CALM      30.13R
MOUNT PLEASANT   N/A     72  68  88 CALM      30.02
SHELBYVILLE    CLEAR     72  68  88 S5        30.13R
TULLAHOMA      CLEAR     72  66  83 S5        30.14R
WINCHESTER     CLEAR     72  66  83 VRB5      30.15R
$$


...KEY TO REMARKS...
VSB - VISIBILITY IN MILES
WCI - WIND CHILL INDEX
HX  - HEAT INDEX



USA.gov is the U.S. government's official web portal to all federal, state and local government web resources and services.